Location: Bagong Pook
(14.2541°N, 120.8791°E)
Time: 02:01:53
(UTC+00:00)

Cosmos 1934 Rocket - Pass Details

Date: 13 January 2026
Orbit: 938 x 998 km, 83.0° (Epoch: 15 February)

Event Time Altitude Azimuth Distance (km) Brightness Sun altitude
Rises 11:38:15 0° 356° (N) 3,630 6.9 -26.5°
Enters shadow 11:38:40 - 356° (N) 3,475 6.8 -26.6°
Exits shadow 11:44:48 45° 359° (N) 1,300 4.5 -28.0°
Maximum altitude 11:46:54 88° 84° (E) 976 3.8 -28.5°
Drops below altitude 10° 11:53:11 10° 176° (S) 2,731 6.5 -30.0°
Sets 11:55:42 0° 176° (S) 3,686 7.2 -30.6°
